GFSNGP_con_3kmhel_153.txt.gz
Helicity
240 201 254 247 234 112 113 250 266 136 82 239 171 151 165 194 133 93 95 116 88 69 57 35 19 13 -21 -44 -2 -4 -2 11 39 17 -5 13 12 44 86 144 170 125 208 206
228 224 190 210 210 184 175 154 185 158 184 169 181 176 179 102 74 121 128 98 67 57 48 33 28 13 -46 -51 -3 26 -42 -14 17 11 -24 1 19 40 18 25 78 129 146 154
228 204 201 203 192 158 146 168 192 215 150 143 183 167 87 70 128 138 102 75 66 66 55 44 43 -2 -37 -28 23 4 -58 -78 -41 -2 -8 -20 -38 -1 26 3 -40 -13 49 124
268 221 243 176 87 119 139 62 163 170 216 190 148 162 112 121 143 129 75 61 73 73 56 50 52 -4 -11 -19 39 -15 -15 -13 -18 -35 -9 -8 -15 -5 -1 -25 24 33 47 39
273 199 179 196 176 145 152 144 178 208 276 315 284 172 203 205 119 69 38 62 73 68 71 64 45 13 -5 -0 16 -14 -12 8 13 17 -25 -16 2 24 17 25 35 50 54 48
224 180 184 150 264 253 162 160 185 224 254 225 162 160 165 133 71 45 50 56 74 89 79 56 50 48 19 29 -5 -17 -2 18 30 34 27 -5 -13 8 5 7 36 32 37 34
115 162 133 126 185 168 160 88 208 235 179 173 143 122 117 119 92 67 64 112 107 90 63 60 75 60 37 42 -4 -8 -5 11 32 35 37 34 30 -3 -4 1 7 12 36 39
162 178 127 187 171 151 128 167 142 143 153 146 117 109 142 108 93 91 103 122 112 71 73 80 68 50 51 27 -2 -18 -1 10 24 35 41 36 37 31 25 11 13 25 28 28
130 106 193 263 233 186 103 141 119 109 85 85 143 148 114 103 92 107 112 90 78 71 76 80 60 60 51 16 -10 -5 -4 -0 11 21 27 32 37 34 25 19 7 19 21 41
142 134 203 225 217 217 187 125 93 64 123 185 146 118 102 88 108 91 69 62 58 62 56 46 45 44 46 16 7 11 20 14 12 15 24 26 32 32 29 8 7 1 -4 17
121 181 192 147 174 181 182 152 123 150 127 116 117 122 103 114 95 58 56 56 50 40 37 31 26 28 27 13 14 18 23 28 33 24 32 31 19 4 13 -3 -2 -3 -14 -27
83 92 176 223 205 164 111 97 98 141 158 166 149 126 117 90 58 43 40 36 31 29 25 26 20 16 16 13 8 8 23 47 44 17 28 37 25 37 47 44 52 56 49 25
137 141 175 200 194 129 104 126 161 161 174 170 151 120 80 43 37 58 42 32 32 23 11 22 14 21 20 17 18 17 15 32 7 19 36 18 12 21 38 42 33 53 72 81
241 218 160 140 116 133 168 149 166 141 132 131 110 86 67 46 58 46 26 10 28 39 36 37 25 20 35 36 25 40 33 37 8 25 36 11 20 36 20 32 46 49 32 63
166 136 184 208 204 173 104 84 133 141 122 113 107 91 74 58 44 17 12 35 54 75 72 43 43 54 64 55 26 41 53 48 23 33 37 8 9 20 8 36 38 40 34 48
193 198 183 177 168 158 167 162 175 175 162 140 102 93 78 80 61 52 55 64 78 73 37 36 34 43 44 27 49 57 80 43 43 47 40 24 35 35 8 11 23 21 23 38
185 167 231 224 173 184 199 180 188 197 177 123 100 86 91 92 85 83 78 77 66 51 31 46 34 26 17 30 38 62 46 37 50 49 50 42 61 43 13 11 19 17 14 13
226 191 152 151 184 198 164 158 157 139 111 95 87 84 71 74 70 77 86 102 79 85 66 57 45 51 48 54 64 58 26 24 35 45 43 59 65 77 25 18 17 12 11 8
306 324 316 262 206 168 145 136 114 109 97 89 96 95 84 71 72 96 116 106 96 80 69 57 66 53 51 67 75 30 15 17 24 37 32 46 53 75 61 43 19 12 11 11
207 235 258 253 201 183 152 118 115 118 107 113 119 120 102 79 86 106 108 110 78 64 58 74 61 43 51 61 47 13 4 -7 2 16 18 40 50 65 45 75 19 10 -10 -12
170 156 167 167 161 139 136 126 125 117 111 128 119 101 109 103 69 83 121 123 77 69 79 89 48 51 58 59 29 29 14 -5 -1 14 11 14 24 51 28 53 50 8 11 -3
150 137 134 130 134 142 121 122 127 119 109 97 102 103 111 127 114 109 90 78 59 69 85 70 46 57 62 45 44 34 27 10 11 13 10 6 4 11 10 16 30 -2 3 14
141 121 114 114 104 102 110 115 104 92 88 89 86 90 113 102 103 126 110 71 78 74 82 68 54 56 58 57 45 46 37 14 17 21 14 6 -8 -1 10 5 7 2 -7 -3
140 122 109 102 115 107 106 56 61 65 73 68 70 67 81 103 98 85 93 92 78 75 75 73 65 55 57 62 49 44 44 28 27 27 18 7 -2 -16 -5 10 -11 -15 -0 7
115 120 121 104 80 63 66 61 63 56 59 60 73 50 42 74 97 78 88 82 78 81 71 72 73 54 56 55 45 41 37 32 30 34 22 11 2 -5 -7 -11 -1 -21 -28 -7
123 107 96 77 58 73 64 85 66 50 72 99 115 95 89 86 90 86 89 87 80 77 71 66 68 57 45 43 39 37 36 35 31 26 32 22 10 5 -9 -17 -22 -19 -23 -19
97 108 119 107 136 135 128 118 106 123 135 136 129 100 102 99 99 92 89 83 80 73 72 70 71 71 57 45 41 37 35 33 38 30 25 27 28 9 15 1 -12 -24 -24 -16

GFSNGP_con_3kmhel_156.txt.gz
Helicity
302 278 287 262 263 247 323 314 319 231 189 188 272 297 200 158 121 141 158 129 110 127 81 43 39 45 27 19 21 -0 2 -1 7 19 37 30 47 -16 -28 -11 9 43 118 99
264 245 222 192 227 214 229 276 236 217 248 252 314 299 219 173 166 165 129 117 138 111 55 39 40 44 37 30 19 -7 11 3 6 -19 24 37 26 -4 -41 -37 -8 27 89 79
255 164 200 139 203 243 247 279 247 271 257 321 289 206 186 186 169 137 118 142 116 77 43 44 50 67 58 69 27 11 -3 26 40 55 49 30 21 7 -4 -28 -33 -16 15 3
200 200 222 232 128 142 173 214 179 232 240 214 262 320 270 168 139 125 121 124 89 66 56 57 77 85 84 87 24 3 1 23 57 71 53 51 44 -3 12 8 10 -7 2 -28
225 199 205 191 160 167 172 223 205 235 275 286 308 295 181 122 119 97 117 110 100 79 76 108 105 88 97 58 28 6 -0 19 39 49 41 45 49 53 -9 -5 -6 -0 16 28
267 228 196 183 170 169 165 196 188 228 226 180 106 179 159 156 152 187 199 148 114 97 101 116 85 69 65 35 20 12 19 20 32 31 26 29 34 44 52 27 9 2 4 -6
223 239 216 134 116 126 159 87 146 152 150 163 170 156 195 224 234 198 172 149 107 86 73 81 66 49 43 25 16 17 23 31 43 40 26 19 21 37 41 36 28 4 -7 -2
212 219 190 117 176 126 93 134 136 138 105 109 150 193 240 237 210 181 147 114 89 71 71 71 71 38 28 18 23 24 25 37 33 36 34 18 7 19 34 31 31 21 16 20
144 138 148 128 111 142 111 129 120 109 107 170 198 200 196 173 151 130 101 78 66 53 58 57 45 39 24 16 15 19 32 32 36 35 43 29 5 -2 8 14 22 15 14 16
158 126 183 240 236 179 154 133 123 167 177 176 176 169 166 133 110 93 79 66 58 56 55 46 36 35 20 19 13 11 27 39 33 26 31 34 32 17 -0 2 -0 -9 -15 10
170 181 220 189 176 166 148 171 177 172 159 170 189 159 123 110 85 68 66 60 57 57 55 43 33 27 33 20 17 5 24 35 30 39 31 29 23 11 -2 -2 10 -4 -17 -9
105 183 184 165 138 146 177 208 222 257 248 193 149 124 106 86 61 57 55 53 59 54 47 51 45 44 50 47 34 19 31 35 23 41 43 35 30 32 45 50 57 63 66 33
88 132 146 191 138 134 199 214 218 214 171 154 117 94 80 65 63 67 46 49 53 43 50 50 46 49 58 53 41 40 42 41 25 40 43 27 22 32 36 61 54 62 68 60
224 270 223 161 149 209 211 201 201 176 152 131 113 90 77 77 67 54 40 32 44 53 48 49 55 57 60 47 52 67 71 66 45 48 60 31 25 31 14 18 18 26 14 52
132 105 134 202 212 189 166 172 175 152 144 145 122 108 83 83 62 42 49 76 76 77 56 63 68 75 69 65 74 85 78 57 64 66 70 55 48 50 26 20 22 16 -5 12
170 198 207 214 168 135 166 180 184 139 131 121 108 94 72 67 63 78 87 87 91 65 63 88 88 68 69 78 89 86 71 73 73 67 70 70 74 72 27 22 24 29 21 31
250 208 234 209 202 195 190 171 164 138 126 105 91 88 88 90 108 123 93 93 90 85 71 75 54 69 70 84 88 64 39 39 44 45 45 55 62 96 54 16 10 9 14 21
125 139 160 192 194 214 191 173 153 118 102 103 106 111 112 104 103 96 96 108 120 97 99 86 77 80 89 90 88 62 51 38 30 25 20 38 46 57 50 53 21 16 9 5
202 201 198 193 187 192 167 145 125 126 124 120 116 91 68 79 86 108 83 130 112 102 101 80 74 82 93 94 88 69 57 42 34 40 37 40 46 47 44 61 28 1 6 12
301 293 270 239 182 161 159 135 135 142 113 113 112 107 82 76 93 117 112 122 93 77 73 92 75 94 92 85 78 69 58 42 41 42 47 44 42 43 26 42 18 18 -7 8
232 223 217 197 177 157 151 135 148 133 109 114 114 105 115 95 107 120 131 117 73 75 99 93 87 92 89 86 80 73 69 48 51 51 49 39 35 35 26 24 10 -11 -6 7
176 175 176 178 171 157 128 125 133 125 119 105 110 119 132 135 143 117 81 90 74 84 93 92 89 84 91 90 93 76 65 57 52 51 50 48 31 24 23 8 7 -4 -7 -3
146 144 148 145 137 123 121 127 118 100 82 93 103 111 115 102 100 111 105 70 84 94 92 91 80 84 88 97 88 80 65 68 57 53 50 51 33 24 20 20 -0 -8 -6 4
137 123 115 120 139 136 127 94 82 56 65 74 78 68 85 94 73 70 74 83 93 93 90 79 82 81 82 84 80 70 66 64 53 51 53 51 42 29 25 14 5 -11 -17 -10
130 128 132 133 115 85 105 79 67 54 56 52 49 44 46 50 85 67 78 77 87 96 88 79 87 86 82 75 75 68 61 61 54 44 47 55 52 44 33 21 9 -1 -8 -10
142 130 113 96 82 87 97 73 46 39 66 63 61 42 36 50 71 79 79 83 87 89 91 87 88 88 90 87 80 73 71 62 64 55 50 48 49 49 50 47 23 10 1 -6
130 137 130 106 79 114 101 66 76 57 68 103 99 67 74 69 72 79 81 81 85 88 92 97 102 93 97 99 97 88 88 79 78 76 74 62 55 43 45 51 51 29 18 -1

GFSNGP_con_3kmhel_159.txt.gz
Helicity
192 182 212 185 241 289 258 274 327 223 207 245 332 352 309 244 255 211 164 156 143 146 116 88 75 51 44 35 44 35 23 13 28 47 70 78 90 88 80 46 20 -11 6 15
206 236 241 224 229 200 219 257 249 268 238 241 237 416 394 284 255 205 180 164 173 149 108 95 83 61 51 59 51 30 31 9 33 47 66 82 88 86 65 72 15 -9 -2 12
241 250 267 194 239 220 228 257 248 270 234 317 326 335 321 276 244 206 180 166 151 131 125 114 92 65 68 59 39 27 32 33 27 39 52 70 78 70 69 56 51 17 -2 -18
256 279 251 264 174 165 186 247 263 301 243 267 348 381 358 261 219 191 154 149 163 159 143 122 92 76 69 47 24 22 33 43 48 37 37 50 50 57 47 50 46 12 28 7
281 299 231 213 197 160 155 182 216 226 310 371 399 381 271 202 197 172 186 193 177 150 119 102 91 76 43 33 13 15 29 44 38 42 32 36 37 33 37 30 35 38 17 12
253 271 172 94 134 132 188 226 182 197 237 271 234 220 142 183 236 249 217 179 155 136 111 98 83 61 28 17 20 19 25 31 36 35 23 27 31 31 34 24 14 24 28 30
290 177 147 165 169 170 239 123 181 219 202 182 166 129 237 295 264 214 186 157 133 116 99 86 68 47 36 22 24 22 15 24 26 40 26 27 22 23 21 20 14 9 15 14
253 237 186 132 159 147 105 156 175 176 147 172 223 268 276 237 212 185 165 144 118 105 100 80 63 50 36 30 30 22 25 30 22 25 26 25 17 16 20 16 10 -1 8 15
175 134 162 80 103 133 118 135 127 156 138 162 203 191 189 196 188 162 135 109 96 93 85 74 64 52 45 39 36 35 28 32 27 25 27 25 18 11 8 20 6 -2 -1 -8
185 158 142 147 208 172 159 132 100 128 140 171 196 189 204 176 146 128 104 94 86 83 81 77 63 58 52 54 52 46 46 52 42 33 29 29 21 15 4 2 1 -5 -19 0
203 144 151 169 182 187 184 171 206 193 173 198 216 184 155 143 127 109 99 77 74 72 77 60 46 51 60 59 49 43 46 51 51 41 47 33 15 12 3 -10 -4 -11 -26 -21
85 110 143 135 155 167 174 176 187 242 231 180 158 161 153 146 116 92 80 85 94 86 69 55 64 70 63 52 41 38 46 48 53 47 56 45 29 23 31 42 41 48 54 32
68 124 150 213 203 184 185 187 184 193 167 183 159 151 128 118 94 101 110 103 92 76 81 92 85 69 59 59 59 57 52 45 45 54 45 40 47 29 11 36 24 45 63 70
177 253 211 173 164 199 231 233 240 218 172 143 133 119 117 119 101 104 104 78 57 80 100 87 70 68 62 65 65 71 69 60 61 49 40 32 39 39 13 -8 -13 3 15 62
166 97 127 211 241 221 234 233 222 177 151 133 105 112 108 106 87 82 78 75 87 96 89 83 76 71 73 69 81 83 81 77 76 61 49 35 30 36 31 -4 -13 -22 -16 11
144 165 193 221 210 187 191 169 184 153 135 123 114 111 106 86 85 103 100 97 89 74 64 66 72 70 79 95 93 88 95 85 79 72 62 49 35 32 12 -5 -14 -19 -37 -19
194 173 202 214 192 166 131 137 141 147 133 114 99 90 95 110 119 128 121 93 81 73 64 75 80 77 84 103 97 94 99 94 77 77 69 57 40 32 27 13 -27 -29 -28 -46
73 105 135 203 209 200 175 159 152 137 116 115 124 140 142 126 108 108 99 83 83 95 89 78 75 86 98 103 101 98 105 94 89 84 69 70 50 36 37 32 7 -35 -38 -20
111 160 159 175 180 194 181 161 142 141 144 138 142 126 117 116 87 84 91 98 89 89 69 76 80 98 102 100 109 106 109 98 92 90 83 72 59 45 37 31 8 -7 -23 -22
196 206 224 206 174 184 188 160 162 161 144 151 152 132 112 89 76 75 79 93 71 75 61 78 89 102 103 104 106 105 109 98 99 94 87 76 60 43 39 33 15 -10 -24 -17
225 222 224 209 193 174 172 157 175 156 128 130 128 93 77 65 71 87 99 85 62 67 76 93 96 99 102 103 105 106 107 106 101 92 88 76 60 44 40 41 23 5 -8 -13
241 241 211 199 188 183 151 152 162 171 160 147 121 111 105 107 102 79 68 75 61 62 74 89 91 91 103 108 110 103 104 106 95 90 83 74 64 47 42 43 32 12 5 -3
197 186 179 170 164 156 155 148 143 161 143 95 104 95 89 77 84 98 72 53 65 67 75 85 83 93 103 116 114 107 111 108 93 87 84 77 69 55 51 43 40 31 18 1
185 163 149 162 191 181 160 109 132 130 98 80 82 75 91 95 76 62 61 68 74 79 80 82 84 94 111 111 109 107 113 107 93 86 82 80 76 64 60 59 47 44 34 18
157 168 164 160 139 116 138 130 155 128 103 93 78 65 55 57 82 60 71 68 70 83 84 80 81 94 117 118 120 115 116 112 99 92 84 81 79 66 58 66 52 45 47 32
152 131 104 100 103 125 137 145 123 86 80 64 50 54 56 58 64 64 72 74 79 83 84 89 96 107 118 118 121 123 130 123 125 116 113 100 87 78 66 56 57 50 49 49
148 144 134 130 126 130 128 123 136 71 58 80 78 77 81 73 66 73 83 85 84 82 86 94 107 113 125 128 122 119 130 141 143 141 145 133 123 103 81 67 61 56 56 51

GFSNGP_con_3kmhel_162.txt.gz
Helicity
293 262 274 124 168 253 252 163 279 172 227 260 211 198 241 331 363 320 266 215 178 129 114 121 115 95 78 72 53 39 34 31 20 36 53 47 34 49 65 78 80 52 39 30
313 270 170 198 111 135 143 229 232 217 186 206 167 347 348 354 345 325 244 202 157 141 158 154 125 95 86 68 48 38 32 25 16 34 47 48 46 39 43 63 72 66 46 36
299 401 171 193 116 182 226 278 251 250 202 259 268 258 311 389 344 272 223 186 158 165 168 145 114 88 85 58 44 40 33 24 16 21 30 41 41 40 34 42 55 67 51 42
429 253 231 131 73 134 172 211 233 245 220 225 273 335 354 350 321 253 209 176 173 176 170 139 106 103 77 57 46 41 33 20 20 20 20 28 33 34 28 40 43 56 47 40
379 182 146 95 196 192 169 113 185 214 307 313 327 394 400 307 251 204 184 190 203 189 151 130 107 90 66 53 46 39 32 17 11 11 13 9 19 28 23 20 27 35 40 34
179 181 167 127 191 214 216 136 160 254 228 220 229 246 204 226 232 248 241 218 192 165 137 119 93 71 63 57 46 46 36 20 11 4 -0 1 8 12 21 24 12 23 25 24
162 236 224 202 219 201 167 94 156 158 160 180 218 146 199 246 280 256 224 196 162 141 119 93 74 71 68 54 54 42 34 32 33 26 9 8 11 9 9 16 14 14 30 29
344 310 187 165 241 196 135 184 151 162 182 259 228 211 241 259 249 225 195 160 130 116 104 87 84 73 60 53 53 55 50 54 49 39 25 25 14 3 3 1 -0 6 20 21
238 207 207 181 134 156 104 114 101 184 189 207 210 201 202 213 206 170 142 121 112 113 103 94 85 75 66 63 74 68 55 55 50 46 34 40 27 15 -0 -5 -18 -16 -4 4
208 162 157 168 165 131 149 159 157 177 173 170 192 178 204 189 170 142 116 112 101 106 105 98 82 87 83 77 68 61 61 62 53 49 42 46 47 35 16 5 -10 -27 -30 -13
212 182 183 145 125 172 225 222 218 177 154 168 197 172 186 169 135 116 106 98 95 99 99 93 93 97 89 76 71 71 67 64 64 60 64 56 59 41 8 -10 -11 -18 -30 -28
96 69 145 114 118 155 183 153 152 200 203 185 187 191 167 136 111 97 94 87 95 100 103 101 96 85 79 79 67 58 63 66 65 59 62 62 67 69 57 52 44 38 43 21
99 108 115 174 172 158 197 152 152 192 192 206 168 155 131 120 96 104 102 101 114 113 110 98 86 84 76 67 58 64 66 66 75 75 71 70 70 51 58 50 36 33 38 39
162 254 218 168 130 183 233 229 237 245 204 169 152 136 128 125 118 112 97 94 108 107 101 83 78 62 55 56 63 74 80 79 93 99 98 86 81 72 60 32 -14 -28 -25 10
141 104 130 218 264 249 243 239 250 201 162 142 114 116 114 121 107 88 90 98 102 100 93 73 58 48 54 64 80 84 86 91 100 105 106 101 97 92 80 60 15 -35 -64 -41
153 164 173 238 232 217 219 179 192 141 129 122 119 119 117 113 102 101 98 91 95 77 54 50 44 44 47 71 78 83 89 86 99 108 107 102 97 93 78 63 35 -12 -54 -64
204 157 187 201 188 163 129 128 133 133 127 126 128 126 125 125 127 123 120 92 84 60 50 57 44 42 54 68 73 79 90 100 96 104 107 106 92 86 77 63 38 5 -23 -38
69 87 99 192 173 167 142 136 132 126 127 133 138 152 148 129 105 102 91 84 79 68 47 49 46 51 63 69 78 86 94 96 103 102 100 106 98 88 79 63 46 6 -10 -18
89 132 134 160 167 164 154 137 135 155 162 161 169 139 124 119 112 92 100 96 75 65 44 51 48 63 67 69 92 91 97 104 106 109 106 95 98 86 76 63 48 25 -1 -11
144 154 174 183 156 165 167 158 181 178 159 179 194 183 148 111 87 99 88 68 54 48 42 46 53 64 67 76 89 96 101 105 116 110 106 98 94 82 72 63 50 26 14 12
139 154 174 175 169 157 165 172 193 180 162 166 164 144 123 86 84 104 91 67 43 48 47 57 65 63 71 78 92 104 107 109 121 113 108 98 89 85 76 67 59 38 25 21
148 177 189 192 178 173 159 174 186 196 179 162 167 170 137 109 92 60 53 64 50 57 53 61 66 70 71 81 104 108 109 117 121 118 115 108 95 85 79 73 64 52 44 29
163 182 195 183 171 173 182 165 164 173 167 164 166 119 116 109 104 106 70 48 49 52 51 62 68 69 81 96 103 108 111 123 122 115 109 105 98 88 81 76 71 60 46 34
195 200 196 197 216 199 167 129 153 147 150 162 129 106 127 124 77 52 63 74 68 62 59 65 68 73 88 104 112 115 122 139 141 128 114 105 104 92 84 76 77 68 60 48
202 209 194 188 169 139 158 158 182 171 162 166 130 97 85 88 98 67 74 71 68 70 65 64 68 77 100 112 119 123 130 150 152 157 147 139 120 105 92 82 76 69 61 61
169 160 145 136 121 142 162 173 161 147 177 167 98 70 71 74 74 83 83 78 79 77 73 76 84 92 102 110 116 128 139 154 164 164 166 159 152 137 120 100 84 72 63 60
182 182 172 160 135 150 157 158 167 132 136 149 99 68 75 87 89 91 91 89 86 82 81 86 93 101 117 124 129 140 144 154 150 158 179 202 196 163 139 115 94 80 70 64